When you browse on this site, cookies collect data to enhance your experience and personalize the content and advertising you see.
Visit our Privacy Policy to learn more. By continuing to use the site, you agree to this use of cookies and data.
  • In Austria
  • List of Countries
  • For 7 days
  • Water Temperature
  • Satellite Maps
  • Weather Map
  • News
  • Weather Widgets
  • user-avatar
    Login

    Hourly Weather Luksor

    Today, 17 February, Sunday

    Time Temperature Precipitation Wind Pressure Humidity
    00:00 +15°C° 0 mm 2 mps 759 mmHg 37%
    01:00 +14°C° 0 mm 2 mps 759 mmHg 38%
    02:00 +14°C° 0 mm 2 mps 758 mmHg 39%
    03:00 +13°C° 0 mm 1 mps 758 mmHg 40%
    04:00 +13°C° 0 mm 1 mps 758 mmHg 42%
    05:00 +12°C° 0 mm 1 mps 758 mmHg 43%
    06:00 +13°C° 0 mm 1 mps 758 mmHg 41%
    07:00 +14°C° 0 mm 1 mps 759 mmHg 38%
    08:00 +15°C° 0 mm 1 mps 759 mmHg 36%
    09:00 +16°C° 0 mm 2 mps 759 mmHg 33%
    10:00 +18°C° 0 mm 2 mps 759 mmHg 30%
    11:00 +19°C° 0 mm 3 mps 759 mmHg 27%
    12:00 +20°C° 0 mm 3 mps 758 mmHg 25%
    13:00 +21°C° 0 mm 3 mps 757 mmHg 22%
    14:00 +22°C° 0 mm 3 mps 757 mmHg 20%
    15:00 +21°C° 0 mm 4 mps 757 mmHg 20%
    16:00 +21°C° 0 mm 4 mps 756 mmHg 20%
    17:00 +21°C° 0 mm 4 mps 756 mmHg 19%
    18:00 +20°C° 0 mm 4 mps 756 mmHg 21%
    19:00 +19°C° 0 mm 3 mps 757 mmHg 24%
    20:00 +18°C° 0 mm 3 mps 757 mmHg 26%
    21:00 +17°C° 0 mm 3 mps 757 mmHg 27%
    22:00 +16°C° 0 mm 3 mps 757 mmHg 29%
    23:00 +16°C° 0 mm 2 mps 757 mmHg 30%

    Tomorrow, 18 February, Monday

    Time Temperature Precipitation Wind Pressure Humidity
    00:00 +15°C° 0 mm 2 mps 757 mmHg 31%
    01:00 +15°C° 0 mm 2 mps 757 mmHg 32%
    02:00 +14°C° 0 mm 2 mps 757 mmHg 33%
    03:00 +14°C° 0 mm 2 mps 757 mmHg 34%
    04:00 +13°C° 0 mm 1 mps 756 mmHg 34%
    05:00 +13°C° 0 mm 1 mps 756 mmHg 34%
    06:00 +14°C° 0 mm 1 mps 756 mmHg 31%
    07:00 +15°C° 0 mm 1 mps 757 mmHg 28%
    08:00 +16°C° 0 mm 1 mps 757 mmHg 25%
    09:00 +17°C° 0 mm 2 mps 757 mmHg 22%
    10:00 +19°C° 0 mm 3 mps 757 mmHg 19%
    11:00 +20°C° 0 mm 5 mps 757 mmHg 16%
    12:00 +21°C° 0 mm 5 mps 756 mmHg 16%
    13:00 +21°C° 0 mm 6 mps 756 mmHg 15%
    14:00 +22°C° 0 mm 6 mps 755 mmHg 14%
    15:00 +21°C° 0 mm 6 mps 755 mmHg 14%
    16:00 +21°C° 0 mm 6 mps 755 mmHg 14%
    17:00 +21°C° 0 mm 6 mps 755 mmHg 15%
    18:00 +20°C° 0 mm 5 mps 755 mmHg 16%
    19:00 +19°C° 0 mm 5 mps 756 mmHg 17%
    20:00 +17°C° 0 mm 4 mps 756 mmHg 18%
    21:00 +17°C° 0 mm 4 mps 757 mmHg 19%
    22:00 +15°C° 0 mm 4 mps 757 mmHg 20%
    23:00 +16°C° 0 mm 3 mps 757 mmHg 20%

    Day after tomorrow, 19 February, Tuesday

    Time Temperature Precipitation Wind Pressure Humidity
    00:00 +14°C° 0 mm 3 mps 757 mmHg 22%
    01:00 +14°C° 0 mm 3 mps 757 mmHg 24%
    02:00 +13°C° 0 mm 3 mps 757 mmHg 26%
    03:00 +13°C° 0 mm 3 mps 757 mmHg 28%
    04:00 +13°C° 0 mm 2 mps 757 mmHg 31%
    05:00 +13°C° 0 mm 2 mps 757 mmHg 34%
    06:00 +13°C° 0 mm 2 mps 757 mmHg 33%
    07:00 +14°C° 0 mm 2 mps 758 mmHg 32%
    08:00 +15°C° 0 mm 2 mps 758 mmHg 32%
    09:00 +16°C° 0 mm 2 mps 758 mmHg 30%
    10:00 +17°C° 0 mm 2 mps 758 mmHg 28%
    11:00 +19°C° 0 mm 3 mps 759 mmHg 26%
    12:00 +20°C° 0 mm 3 mps 758 mmHg 24%
    13:00 +20°C° 0 mm 3 mps 757 mmHg 22%
    14:00 +21°C° 0 mm 2 mps 757 mmHg 19%
    15:00 +21°C° 0 mm 2 mps 757 mmHg 19%
    16:00 +21°C° 0 mm 2 mps 757 mmHg 19%
    17:00 +23°C° 0 mm 2 mps 757 mmHg 19%
    18:00 +20°C° 0 mm 2 mps 757 mmHg 21%
    19:00 +20°C° 0 mm 1 mps 758 mmHg 22%
    20:00 +19°C° 0 mm 1 mps 758 mmHg 24%
    21:00 +18°C° 0 mm 1 mps 758 mmHg 27%
    22:00 +18°C° 0 mm 1 mps 758 mmHg 29%
    23:00 +16°C° 0 mm 1 mps 758 mmHg 32%

    20 February, Wednesday

    Time Temperature Precipitation Wind Pressure Humidity
    00:00 +15°C° 0 mm 1 mps 758 mmHg 36%
    01:00 +14°C° 0 mm 1 mps 758 mmHg 40%
    02:00 +13°C° 0 mm 0 mps 757 mmHg 45%
    03:00 +12°C° 0 mm 0 mps 757 mmHg 47%
    04:00 +12°C° 0 mm 0 mps 757 mmHg 49%
    05:00 +12°C° 0 mm 0 mps 758 mmHg 51%
    06:00 +14°C° 0 mm 1 mps 758 mmHg 47%
    07:00 +15°C° 0 mm 1 mps 758 mmHg 44%
    08:00 +16°C° 0 mm 1 mps 759 mmHg 40%
    09:00 +19°C° 0 mm 1 mps 759 mmHg 36%
    10:00 +20°C° 0 mm 1 mps 759 mmHg 32%
    11:00 +21°C° 0 mm 1 mps 759 mmHg 28%
    12:00 +21°C° 0 mm 2 mps 758 mmHg 24%
    13:00 +23°C° 0 mm 2 mps 757 mmHg 21%
    14:00 +24°C° 0 mm 2 mps 756 mmHg 17%
    15:00 +24°C° 0 mm 2 mps 756 mmHg 17%
    16:00 +24°C° 0 mm 2 mps 756 mmHg 16%
    17:00 +24°C° 0 mm 3 mps 756 mmHg 15%
    18:00 +23°C° 0 mm 2 mps 757 mmHg 16%
    19:00 +21°C° 0 mm 2 mps 757 mmHg 18%
    20:00 +20°C° 0 mm 1 mps 757 mmHg 19%
    21:00 +19°C° 0 mm 1 mps 757 mmHg 23%
    22:00 +19°C° 0 mm 1 mps 757 mmHg 27%
    23:00 +18°C° 0 mm 1 mps 757 mmHg 31%

    21 February, Thursday

    Time Temperature Precipitation Wind Pressure Humidity
    00:00 +16°C° 0 mm 1 mps 757 mmHg 34%
    01:00 +15°C° 0 mm 1 mps 757 mmHg 38%
    02:00 +15°C° 0 mm 1 mps 756 mmHg 42%
    03:00 +14°C° 0 mm 1 mps 756 mmHg 42%
    04:00 +14°C° 0 mm 1 mps 756 mmHg 43%
    05:00 +14°C° 0 mm 1 mps 756 mmHg 43%
    06:00 +15°C° 0 mm 1 mps 757 mmHg 40%
    07:00 +16°C° 0 mm 1 mps 757 mmHg 38%
    08:00 +18°C° 0 mm 1 mps 758 mmHg 35%
    09:00 +18°C° 0 mm 2 mps 757 mmHg 32%
    10:00 +20°C° 0 mm 2 mps 757 mmHg 30%
    11:00 +22°C° 0 mm 3 mps 757 mmHg 27%
    12:00 +24°C° 0 mm 3 mps 757 mmHg 24%
    13:00 +25°C° 0 mm 3 mps 756 mmHg 21%
    14:00 +26°C° 0 mm 4 mps 755 mmHg 18%
    15:00 +26°C° 0 mm 4 mps 755 mmHg 16%
    16:00 +26°C° 0 mm 4 mps 755 mmHg 15%
    17:00 +26°C° 0 mm 4 mps 755 mmHg 14%
    18:00 +23°C° 0 mm 4 mps 755 mmHg 15%
    19:00 +22°C° 0 mm 4 mps 756 mmHg 16%
    20:00 +20°C° 0 mm 4 mps 756 mmHg 16%
    21:00 +19°C° 0 mm 3 mps 756 mmHg 18%
    22:00 +18°C° 0 mm 3 mps 756 mmHg 20%
    23:00 +17°C° 0 mm 2 mps 756 mmHg 22%

    22 February, Friday

    Time Temperature Precipitation Wind Pressure Humidity
    00:00 +17°C° 0 mm 2 mps 756 mmHg 24%
    01:00 +16°C° 0 mm 2 mps 755 mmHg 26%
    02:00 +16°C° 0 mm 1 mps 755 mmHg 27%
    03:00 +15°C° 0 mm 1 mps 755 mmHg 29%
    04:00 +15°C° 0 mm 1 mps 755 mmHg 31%
    05:00 +14°C° 0 mm 1 mps 755 mmHg 33%
    06:00 +15°C° 0 mm 1 mps 755 mmHg 32%
    07:00 +16°C° 0 mm 1 mps 756 mmHg 31%
    08:00 +18°C° 0 mm 1 mps 756 mmHg 30%
    09:00 +20°C° 0 mm 1 mps 756 mmHg 27%
    10:00 +21°C° 0 mm 1 mps 756 mmHg 23%
    11:00 +23°C° 0 mm 1 mps 755 mmHg 20%
    12:00 +24°C° 0 mm 2 mps 755 mmHg 18%
    13:00 +26°C° 0 mm 2 mps 754 mmHg 15%
    14:00 +27°C° 0 mm 3 mps 753 mmHg 13%
    15:00 +27°C° 0 mm 3 mps 753 mmHg 12%
    16:00 +27°C° 0 mm 3 mps 753 mmHg 12%
    17:00 +27°C° 0 mm 3 mps 753 mmHg 11%
    18:00 +26°C° 0 mm 3 mps 753 mmHg 13%
    19:00 +25°C° 0 mm 2 mps 753 mmHg 14%
    20:00 +23°C° 0 mm 2 mps 754 mmHg 15%
    21:00 +23°C° 0 mm 2 mps 754 mmHg 17%
    22:00 +21°C° 0 mm 2 mps 754 mmHg 19%
    23:00 +21°C° 0 mm 1 mps 754 mmHg 20%
    Show more